Location: Kergonan
(48.2337°N, 4.5518°W)
Time: 16:34:36
(UTC+00:00)

Cosmos 1300 - Pass Details

Date: 18 January 2020
Orbit: 511 x 515 km, 82.5° (Epoch: 20 February)

Event Time Altitude Azimuth Distance (km) Brightness Sun altitude
Rises 07:04:21 0° 172° (S) 2,620 6.7 -9.5°
Reaches altitude 10° 07:06:31 10° 166° (SSE) 1,739 5.9 -9.2°
Maximum altitude 07:10:09 44° 94° (E) 721 4.0 -8.6°
Drops below altitude 10° 07:13:49 10° 22° (NNE) 1,753 5.4 -8.1°
Sets 07:16:01 0° 16° (NNE) 2,645 6.2 -7.7°
